SCP
0 0 0 0 0 0 0 0 0 0 0 0 0 0 -0 0 0 0 0 0 0 0 0 0 0 0 0 0 0 0 0 0 0 0 0 0 0 0 0 0 0 0 0 0 0 0 0 0 0
0 0 0 0 0 0 0 0 0 0 0 0 0 0 -0 0 0 0 0 0 0 0 0 0 0 0 0 0 0 0 0 0 0 0 0 0 0 0 0 0 0 0 0 0 0 0 0 0 0
0 0 0 0 0 0 0 0 0 0 0 0 0 0 0 0 0 0 0 0 0 0 0 0 0 0 0 0 0 0 0 0 0 0 0 0 0 0 0 0 0 0 0 0 0 0 0 0 0
0 0 0 0 0 0 0 0 0 0 0 0 0 0 0 0 0 0 0 0 0 0 0 0 0 0 0 0 0 0 0 0 0 0 0 0 0 0 0 0 0 0 0 0 0 0 0 0 0
-0 0 0 0 0 0 0 0 0 0 0 0 0 0 0 0 0 0 0 0 0 0 0 0 0 0 0 0 0 0 0 0 0 0 0 0 0 0 0 0 0 0 0 0 0 0 0 0 0
-0 0 0 0 0 0 0 0 0 0 0 0 0 0 0 0 0 0 0 0 0 0 0 0 0 0 0 0 0 0 0 0 0 0 0 0 0 0 0 0 0 0 0 0 0 0 0 0 0
-0 0 0 0 0 0 0 0 0 0 0 0 0 0 0 0 0 0 0 0 0 0 0 0 0 0 0 0 0 0 0 0 0 0 0 0 0 0 0 0 0 0 0 0 0 0 0 0 0
0 0 0 0 0 0 0 0 0 0 0 0 0 0 0 0 0 0 0 0 0 0 0 0 0 0 0 0 0 0 0 0 0 0 0 0 0 0 0 0 0 0 0 0 0 0 0 0 0
0 0 0 0 0 0 0 0 0 0 0 0 0 0 0 0 0 0 0 0 0 0 0 0 0 0 0 0 0 0 0 0 0 0 0 0 0 0 0 0 0 0 0 0 0 0 0 0 0
0 0 0 0 0 0 0 0 0 0 0 0 0 0 0 0 0 0 0 0 0 0 0 0 0 0 0 0 0 0 0 0 0 0 0 0 0 0 0 0 0 0 0 0 0 0 0 0 0
0 0 0 0 0 0 0 0 0 0 0 0 0 0 0 0 0 0 0 0 0 0 0 0 0 0 0 0 0 0 0 0 0 0 0 0 0 0 0 0 0 0 0 0 0 0 0 0 0
0 0 0 0 0 0 0 0 0 0 0 0 0 0 0 0 0 0 0 0 0 0 0 0 0 0 0 0 0 0 0 0 0 0 0 0 0 0 0 0 0 0 0 0 0 0 0 0 0
0 0 0 0 0 0 0 0 0 0 0 0 0 0 0 0 0 0 0 0 0 0 0 0 0 0 0 0 0 0 0 0 0 0 0 0 0 0 0 0 0 0 0 0 0 0 0 0 0
0 0 0 0 0 0 0 0 0 0 0 0 0 0 0 0 0 0 0 0 0 0 0 0 0 0 0 0 0 0 0 0 0 0 0 0 0 0 0 0 0 0 0 0 0 0 0 0 0
0 0 0 0 0 0 0 0 0 0 0 0 0 0 0 0 0 0 0 0 0 0 0 0 0 0 0 0 0 0 0 0 0 0 0 0 0 0 0 0 0 0 0 0 0 0 0 0 0
0 0 0 0 0 0 0 0 0 0 0 0 0 0 0 0 0 0 0 0 0 0 0 0 0 0 0 0 0 0 0 0 0 0 0 0 0 0 0 0 0 0 0 0 0 0 0 0 0
0 0 0 0 0 0 0 0 0 0 0 0 0 0 0 0 0 0 0 0 0 0 0 0 0 0 0 0 0 0 0 0 0 0 0 0 0 0 0 0 0 0 0 0 0 0 0 0 0
0 0 0 0 0 0 0 0 0 0 0 0 0 0 0 0 0 0 0 0 0 0 0 0 0 0 0 0 0 0 0 0 0 0 0 0 0 0 0 0 0 0 0 0 0 0 0 0 0
0 0 0 0 0 0 0 0 0 0 0 0 0 0 0 0 0 0 0 0 0 0 0 0 0 0 0 0 0 0 0 0 0 0 0 0 0 0 0 0 0 0 0 0 0 0 0 0 0
0 0 0 0 0 0 0 0 0 0 0 0 0 0 0 0 0 0 0 0 0 0 0 0 0 0 0 0 0 0 0 0 0 0 0 0 0 0 0 0 0 0 0 0 0 0 0 0 0
0 0 0 0 0 0 0 0 0 0 0 0 0 0 0 0 0 0 0 0 0 0 0 0 0 0 0 0 0 0 0 0 0 0 0 0 0 0 0 0 0 0 0 0 0 0 0 0 0
0 0 0 0 0 0 0 0 0 0 0 0 0 0 0 0 0 0 0 0 0 0 0 0 0 0 0 0 0 0 0 0 0 0 0 0 0 0 0 0 0 0 0 0 0 0 0 0 0
0 0 0 0 0 0 0 0 0 0 0 0 0 0 0 0 0 0 0 0 0 0 0 0 0 0 0 0 0 0 0 0 0 0 0 0 0 0 0 0 0 0 0 0 0 0 0 0 0
0 0 0 0 0 0 0 0 0 0 0 0 0 0 0 0 0 0 0 0 0 0 0 0 0 0 0 0 0 0 0 0 0 0 0 0 0 0 0 0 0 0 0 0 0 0 0 0 0
0 0 0 0 0 0 0 0 0 0 0 0 0 0 0 0 0 0 0 0 0 0 0 0 0 0 0 0 0 0 0 0 0 0 0 0 0 0 0 0 0 0 0 0 0 0 0 0 0
0 0 0 0 0 0 0 0 0 0 0 0 0 0 0 0 0 0 0 0 0 0 0 0 0 0 0 0 0 0 0 0 0 0 0 0 0 0 0 0 0 0 0 0 0 0 0 0 0
0 0 0 0 0 0 0 0 0 0 0 0 0 0 0 0 0 0 0 0 0 0 0 0 0 0 0 0 0 0 0 0 0 0 0 0 0 0 0 0 0 0 0 0 0 0 0 0 0
0 0 0 0 0 0 0 0 0 0 0 0 0 0 0 0 0 0 0 0 0 0 0 0 0 0 0 0 0 0 0 0 0 0 0 0 0 0 0 0 0 0 0 0 0 0 0 0 0
0 0 0 0 0 0 0 0 0 0 0 0 0 0 0 0 0 0 0 0 0 0 0 0 0 0 0 0 0 0 0 0 0 0 0 0 0 0 0 0 0 0 0 0 0 0 0 0 0
0 0 0 0 0 0 0 0 0 0 0 0 0 0 0 0 0 0 0 0 0 0 0 0 0 0 0 0 0 0 0 0 0 0 0 0 0 0 0 0 0 0 0 0 0 0 0 0 0
Wind_Speed
3 2 3 3 5 5 3 1 1 4 4 3 4 4 4 4 3 3 6 11 14 16 14 16 15 13 12 11 10 9 9 9 9 10 11 11 12 12 13 14 14 15 16 16 17 18 18 19 19
2 2 4 4 6 5 2 1 4 3 4 6 5 4 5 5 1 5 9 12 15 15 13 14 16 14 13 11 10 9 9 9 9 9 10 10 11 11 12 13 13 14 15 15 16 16 17 17 18
2 3 3 4 6 6 3 1 2 5 5 7 7 5 5 2 5 7 10 16 15 14 13 14 16 15 13 12 11 10 9 9 9 9 9 9 10 10 11 11 12 12 13 14 14 15 16 16 17
3 3 3 6 7 4 4 0 3 7 7 6 6 6 5 1 3 7 14 18 16 15 14 15 16 15 14 12 11 10 9 9 9 8 8 9 9 9 10 10 11 11 12 13 13 14 15 16 16
2 3 6 8 9 4 2 1 6 9 8 9 8 6 5 6 5 10 16 18 16 15 14 14 17 15 14 13 12 11 10 9 9 8 7 8 8 8 8 9 9 10 10 11 12 13 14 14 15
2 4 8 9 10 6 4 5 7 9 8 7 8 7 3 8 10 13 17 16 15 15 13 12 17 16 15 14 13 11 11 10 9 8 7 7 7 7 7 7 8 8 9 10 11 11 12 13 14
3 5 10 12 12 12 5 7 7 8 10 10 7 7 5 9 11 14 16 16 15 14 13 11 14 15 15 14 13 12 11 10 10 9 8 7 6 6 6 6 7 7 7 8 9 10 11 12 13
2 5 11 11 13 14 2 7 5 8 7 4 7 9 3 10 14 15 15 14 14 14 14 13 13 13 13 13 14 13 12 11 11 10 8 7 6 6 5 4 6 6 6 7 8 8 9 9 11
3 7 11 12 11 10 4 7 5 4 5 6 7 5 5 12 17 16 15 15 15 15 15 14 14 13 12 11 13 13 13 12 11 10 10 7 5 5 4 5 4 5 5 5 6 7 7 6 6
4 8 11 6 6 6 4 7 6 7 10 10 10 9 7 15 18 20 21 21 21 21 19 15 15 14 13 10 9 9 9 10 9 8 9 6 5 4 3 5 4 4 3 3 4 4 4 4 4
5 8 6 5 5 5 5 7 6 9 14 14 13 15 16 17 20 21 22 22 22 20 19 17 16 15 14 10 9 7 6 7 8 9 9 6 5 5 4 4 4 4 3 1 1 1 2 3 4
6 7 5 5 3 5 7 6 8 14 15 6 9 10 18 21 23 23 23 22 20 20 21 19 18 15 15 12 10 9 7 7 7 9 10 7 5 5 5 4 4 3 2 2 2 1 2 3 4
7 5 4 6 6 8 8 12 11 17 17 11 6 12 19 21 23 22 21 20 20 21 21 20 19 18 15 13 10 10 9 9 9 8 10 10 7 6 6 5 4 4 3 3 2 2 3 4 4
3 5 7 7 7 6 9 12 10 18 12 14 15 16 18 21 22 21 21 21 22 22 22 21 21 20 17 14 12 11 10 9 9 9 11 12 8 7 6 6 5 5 4 3 3 3 3 4 4
3 7 10 7 6 4 6 13 14 15 8 13 17 18 19 20 21 23 23 23 23 22 21 22 21 20 19 17 15 11 10 10 10 10 12 13 11 9 8 7 6 6 5 5 4 4 4 4 5
5 6 7 4 6 4 6 16 12 8 11 16 17 17 18 20 22 22 22 21 21 20 21 21 17 20 20 17 15 11 11 11 10 10 10 14 13 12 9 8 7 7 6 6 5 5 5 5 6
6 7 9 7 6 5 9 19 21 10 12 18 18 18 18 19 21 22 22 21 20 21 21 21 21 21 21 19 14 13 12 12 11 10 10 13 14 14 11 8 8 8 7 6 6 6 6 6 6
7 11 12 12 3 7 13 23 27 19 17 21 21 19 18 19 21 19 20 20 19 19 20 20 21 21 19 16 13 12 13 12 11 11 12 14 13 15 13 9 10 10 8 8 7 8 7 6 6
10 12 17 17 7 7 17 25 28 24 18 20 20 19 19 19 17 14 16 18 18 19 20 21 21 21 18 15 14 14 14 12 12 12 15 16 15 16 14 10 11 11 10 10 10 8 9 7 6
9 12 16 12 1 7 16 26 26 18 14 13 15 15 16 16 14 13 14 16 19 21 21 21 22 21 21 16 14 12 12 12 13 12 14 17 17 17 14 15 12 12 10 12 11 10 8 7 6
9 11 12 12 11 7 11 16 10 6 6 8 8 10 11 11 12 12 14 16 18 20 22 19 22 22 22 19 13 11 10 9 11 14 14 17 18 18 17 17 15 13 13 11 13 12 12 9 8
9 5 8 8 9 7 6 11 13 8 9 8 9 6 5 5 7 8 10 14 17 18 17 19 20 21 20 20 18 20 16 17 17 14 13 16 19 19 19 18 18 15 13 13 13 13 11 11 9
5 2 4 5 7 8 4 7 11 7 9 14 13 12 9 6 4 5 8 11 13 14 15 16 18 19 20 21 21 21 20 17 13 14 16 17 17 20 20 19 18 17 14 15 14 13 14 11 11
2 4 3 2 4 6 1 5 9 5 8 13 14 13 12 10 7 5 5 7 10 11 13 15 17 19 20 21 22 24 24 21 19 18 16 15 13 15 21 20 18 17 15 16 15 14 15 13 13
4 6 5 4 3 2 2 6 12 8 8 9 12 12 12 11 10 9 7 5 7 10 13 15 17 19 20 22 23 24 24 23 23 20 18 16 14 14 19 19 19 17 17 16 15 15 15 15 15
2 5 5 6 6 6 3 8 10 9 8 7 6 7 10 12 12 12 10 7 6 8 11 14 17 18 19 20 21 21 22 17 16 20 17 17 14 15 17 20 19 19 18 17 16 14 15 13 14
3 3 3 6 6 7 7 7 13 7 2 2 7 10 13 14 14 13 12 9 7 6 8 11 14 15 16 18 19 19 20 20 19 17 18 16 15 13 17 19 19 19 19 18 17 13 15 14 14
3 1 4 5 6 7 7 7 8 9 10 11 12 14 15 15 15 14 12 10 8 7 6 7 10 12 13 15 16 14 17 19 18 17 19 18 18 17 17 18 19 19 19 19 18 15 15 15 14
5 5 6 5 6 7 9 8 6 11 12 12 13 15 15 14 14 12 11 10 9 8 6 5 7 9 10 12 14 15 16 16 17 18 19 18 17 18 18 18 19 19 19 19 18 17 16 16 15
5 6 7 6 8 8 10 12 8 10 8 9 13 14 13 12 11 10 11 11 10 9 8 6 6 7 8 9 11 14 14 15 17 18 18 17 18 18 18 18 19 19 19 19 19 18 17 17 17
Wind_Direction
164 202 230 230 223 234 267 40 209 166 171 138 149 193 219 230 273 24 113 157 150 155 158 158 156 152 146 138 130 119 108 98 89 82 76 71 65 61 58 55 53 51 49 47 44 42 42 42 41
187 223 222 230 243 242 241 173 210 189 126 142 174 205 221 224 75 113 152 161 159 157 161 158 155 155 150 145 138 128 118 107 97 89 82 76 68 64 60 57 54 51 49 46 44 41 39 40 39
203 253 236 225 242 266 299 145 194 128 150 179 186 219 248 210 160 166 161 161 163 161 162 155 158 158 155 151 144 136 126 116 106 96 89 82 73 67 63 58 55 51 49 46 44 41 37 37 37
238 210 224 241 246 267 298 348 161 163 177 208 209 207 212 180 158 159 154 163 167 164 163 160 163 163 160 156 151 145 136 126 116 106 97 90 81 72 67 62 57 52 48 45 43 41 37 34 33
248 245 236 244 256 262 247 218 186 199 192 194 210 231 202 152 148 153 161 168 171 167 167 166 167 167 166 163 159 153 145 136 127 118 108 98 89 79 73 67 60 54 48 45 42 40 36 31 31
228 256 255 261 269 268 231 196 193 220 210 186 209 236 191 139 163 163 166 173 174 170 171 170 172 173 172 170 166 162 155 147 138 129 119 108 98 89 78 73 66 56 49 44 41 40 35 29 28
279 274 271 276 280 277 254 176 209 221 213 201 203 225 162 169 169 166 170 175 178 176 178 179 178 177 178 176 174 170 164 157 149 140 129 117 107 97 83 76 71 61 50 45 41 39 36 27 26
307 272 269 271 278 284 234 178 230 229 224 175 202 230 193 162 161 166 171 178 183 185 187 185 185 180 180 179 179 176 172 167 159 148 139 127 117 110 99 95 79 68 52 46 42 38 35 27 23
241 260 268 275 276 286 173 201 203 231 224 200 219 248 62 137 154 165 174 185 191 194 194 192 189 183 182 182 179 180 178 175 168 159 152 153 158 148 143 98 89 79 58 46 41 36 28 18 21
224 262 273 284 273 281 219 229 212 207 221 219 216 204 150 157 168 177 185 190 194 196 196 194 194 188 186 183 182 185 181 175 182 173 168 176 174 161 148 123 109 94 72 55 38 29 9 348 359
230 260 275 249 253 265 251 234 220 227 236 229 222 199 175 177 184 192 197 198 198 196 195 197 197 193 191 187 187 184 182 180 187 188 183 182 179 170 182 175 164 164 175 184 144 268 350 352 358
244 251 258 259 231 241 247 242 228 230 247 265 238 193 176 186 194 199 202 202 199 199 198 197 198 197 198 195 193 193 190 189 189 191 191 188 188 193 189 197 190 195 198 212 247 297 326 329 334
241 260 246 248 244 249 255 247 258 252 249 240 215 185 190 197 202 207 208 205 202 202 201 200 199 199 199 200 200 200 199 196 194 191 194 196 195 196 193 197 198 204 206 216 236 263 292 301 309
278 267 261 256 244 241 254 262 251 261 248 228 219 211 207 207 207 207 207 207 206 205 203 200 200 201 200 201 202 202 202 199 199 195 197 199 201 199 197 200 203 207 210 220 237 257 276 285 288
265 277 267 233 229 241 263 261 234 250 228 227 224 223 218 217 213 212 208 208 207 206 203 201 201 202 203 205 207 205 203 200 201 200 199 199 203 202 200 205 205 206 206 215 228 238 255 268 273
244 257 268 191 202 205 247 271 267 250 227 240 237 229 223 220 218 218 214 212 210 206 204 203 199 203 205 206 207 207 206 204 204 202 201 201 203 203 203 207 208 202 204 214 223 233 244 250 262
229 271 290 293 200 212 239 274 283 270 239 252 251 241 230 226 221 219 215 212 209 206 203 203 201 203 205 206 207 210 209 209 208 204 204 203 204 204 206 210 208 202 206 212 218 227 236 249 256
294 295 292 293 266 233 256 272 282 278 252 256 259 253 241 234 229 219 213 211 208 206 204 204 202 205 204 204 208 211 215 214 212 209 208 205 204 204 207 211 210 204 208 211 213 222 226 242 257
287 281 285 292 303 262 272 280 285 289 279 263 259 257 250 243 238 221 210 207 205 205 205 204 203 204 201 200 204 207 211 212 213 214 212 208 206 204 207 209 208 207 211 213 215 220 228 230 235
257 275 286 297 308 265 292 289 287 291 286 277 273 268 260 254 242 221 209 205 205 205 205 205 205 203 203 204 204 210 214 217 216 214 216 213 209 207 206 210 208 207 212 214 214 215 223 227 220
260 266 290 304 313 261 303 293 292 321 313 298 285 277 274 263 251 229 214 211 208 209 208 206 206 205 205 203 203 205 212 220 215 215 215 214 212 209 208 210 211 209 210 212 211 210 216 224 218
281 293 278 290 304 308 340 305 305 337 339 16 18 11 336 294 262 246 224 216 214 215 211 211 210 208 206 202 206 205 207 215 217 215 215 213 212 212 210 210 211 210 210 213 211 210 213 221 226
285 355 279 284 286 287 262 269 291 326 1 10 14 20 18 6 327 271 240 229 223 217 213 213 213 212 209 207 210 213 221 226 225 219 219 216 212 212 211 211 209 211 211 212 211 208 211 214 223
262 253 221 216 244 259 245 264 290 341 355 344 352 6 12 7 357 328 275 242 230 218 213 212 214 216 212 211 213 217 223 225 225 222 218 216 214 212 212 210 210 210 210 210 210 211 213 215 220
235 282 281 261 246 273 109 257 263 294 324 318 323 341 355 359 358 346 326 276 241 222 215 213 215 218 214 214 216 220 224 226 228 226 222 217 215 213 211 207 209 209 209 209 208 210 213 216 219
243 275 301 306 301 306 242 252 269 301 308 304 315 339 355 2 357 345 333 310 274 241 223 217 218 221 216 216 220 223 225 227 231 229 225 222 221 218 212 208 209 208 207 206 206 209 212 215 219
224 222 323 285 278 273 261 268 287 276 245 334 1 4 0 353 347 341 335 327 307 276 241 228 226 226 222 221 223 225 225 226 230 232 230 229 226 221 216 210 210 209 207 205 204 209 211 212 218
299 218 201 246 279 278 267 259 259 284 311 337 348 353 350 348 343 341 340 337 328 312 287 251 239 237 232 227 225 228 228 229 231 232 231 229 227 222 218 213 211 209 207 205 205 208 211 212 216
178 194 225 247 264 279 285 266 252 277 309 329 336 342 344 342 340 341 341 341 337 332 317 287 260 250 242 234 231 231 232 231 231 232 233 231 229 223 220 216 213 210 207 204 205 208 208 212 217
241 237 217 247 256 245 278 279 269 280 309 324 328 335 338 342 344 344 344 345 347 344 335 315 287 266 255 246 240 238 238 235 233 234 234 231 229 225 222 218 216 213 208 205 205 208 209 211 217